Weather Service Report


641 
ASUS44 KLZK 250205
RWRLZK

WEATHER ROUNDUP FOR ARKANSAS
NATIONAL WEATHER SERVICE LITTLE ROCK AR
900 PM CDT TUE MAY 24 2016

NOTE: "FAIR" INDICATES FEW OR NO CLOUDS BELOW 12,000 FEET WITH NO
SIGNIFICANT WEATHER AND/OR OBSTRUCTIONS TO VISIBILITY.

ARZ001-003-010-029-250300-
NORTHWEST ARKANSAS
  
CITY           SKY/WX    TMP DP  RH WIND       PRES   REMARKS
FAYETTEVILLE   CLOUDY    72  70  93 S5        30.02R                  
FORT SMITH     CLOUDY    76  71  85 NE9       30.00R                  
HARRISON       CLOUDY    63  62  97 SE10      30.05R                  
BENTONVILLE    CLOUDY    73  66  78 S8        30.00S                  
ROGERS           N/A     71  68  90 S12       30.00S                  
SILOAM SPGS    CLOUDY    73  63  68 S14       30.01S                  
HIGHFILL       CLOUDY    75  71  87 S9        30.00R                  
SPRINGDALE     CLEAR     73  70  88 S5        30.04R                  
$$

ARZ004-005-016-250300-
NORTH CENTRAL ARKANSAS
  
CITY           SKY/WX    TMP DP  RH WIND       PRES   REMARKS
BATESVILLE     CLOUDY    64  63  94 SE8       30.08F                  
FLIPPIN        CLOUDY   N/A N/A N/A CALM      30.02R                  
MTN HOME       CLOUDY    62  61  96 S3        30.04R                  
$$

ARZ040-041-250300-
WEST CENTRAL ARKANSAS
  
CITY           SKY/WX    TMP DP  RH WIND       PRES   REMARKS
MENA           CLEAR     79  72  78 E3        30.03R                  
MOUNT IDA      CLEAR     75  69  81 CALM      30.01R                  
$$

ARZ009-017-025-026-028-250300-
NORTHEAST ARKANSAS
  
CITY           SKY/WX    TMP DP  RH WIND       PRES   REMARKS
CORNING          N/A     66  66 100 S13       30.04S                  
JONESBORO      LGT RAIN  66  66 100 S6        30.10F                  
NEWPORT        RAIN      66  66 100 E14       30.09F                  
WALNUT RIDGE   CLOUDY    66  63  88 S16       30.05F                  
BLYTHEVILLE    LGT RAIN  68  67  96 E8        30.10R                  
$$

ARZ022-023-033-042-044-250300-
CENTRAL ARKANSAS
  
CITY           SKY/WX    TMP DP  RH WIND       PRES   REMARKS
LITTLE ROCK    TSTM      68  64  87 NE10      30.09R                  
N LITTLE ROCK    N/A     65  63  93 E13G21    30.07R                  
JACKSONVILLE   CLOUDY    66  65  95 NE13      30.08R                  
SEARCY         TSTM      66  65  96 E10       30.12R                  
HOT SPRINGS    MOCLDY    79  69  71 CALM      30.04R                  
RUSSELLVILLE   CLOUDY    68  65  90 E6        30.04R                  
CLINTON        CLOUDY    64  64 100 CALM      30.08S                  
$$

ARZ036-250300-
EAST ARKANSAS
  
CITY           SKY/WX    TMP DP  RH WIND       PRES   REMARKS
WEST MEMPHIS   HVY RAIN  68  66  93 N10G17    30.15R FOG              
$$

ARZ050-053-066-070-073-250300-
SOUTHWEST ARKANSAS
  
CITY           SKY/WX    TMP DP  RH WIND       PRES   REMARKS
ARKADELPHIA    FAIR      76  76 100 CALM      30.02R                  
CAMDEN         CLEAR     75  68  78 CALM      30.02R                  
TEXARKANA      CLOUDY    78  71  79 SE5       30.00R                  
EL DORADO      CLEAR     77  72  84 CALM      30.03R                  
DE QUEEN       PTCLDY    77  73  87 E3        29.98R                  
$$

ARZ056-057-069-250300-
SOUTHEAST ARKANSAS
  
CITY           SKY/WX    TMP DP  RH WIND       PRES   REMARKS
PINE BLUFF     CLOUDY    78  68  71 N6        30.06R                  
STUTTGART      CLOUDY    66  61  82 NE22G29   30.12R THUNDER          
MONTICELLO     MOCLDY    79  66  64 CALM      30.04R                  

$$


  

Return to Home page


Western Regional Climate Center, wrcc@dri.edu